QPF
0.06 0.05 0.05 0.05 0.05 0.05 0.05 0.05 0.05 0.05 0.05 0.05 0.05 0.05 0.05 0.04 0.04 0.05 0.05 0.07 0.10 0.11 0.14 0.16 0.15 0.13 0.11 0.10 0.08 0.08 0.07 0.08 0.09 0.08 0.08 0.08 0.06 0.05 0.05 0.05 0.05 0.05 0.05
0.06 0.06 0.07 0.06 0.06 0.05 0.04 0.05 0.07 0.09 0.09 0.09 0.09 0.07 0.06 0.05 0.05 0.07 0.06 0.07 0.12 0.12 0.13 0.15 0.16 0.15 0.14 0.12 0.08 0.07 0.07 0.08 0.08 0.08 0.07 0.07 0.07 0.06 0.06 0.06 0.06 0.05 0.05
0.06 0.06 0.06 0.06 0.06 0.06 0.08 0.09 0.09 0.11 0.11 0.12 0.12 0.11 0.09 0.07 0.06 0.07 0.06 0.06 0.08 0.10 0.11 0.13 0.15 0.14 0.13 0.11 0.10 0.09 0.08 0.08 0.08 0.07 0.08 0.08 0.08 0.08 0.07 0.08 0.08 0.07 0.07
0.09 0.07 0.07 0.07 0.07 0.08 0.12 0.14 0.16 0.19 0.20 0.19 0.15 0.11 0.09 0.07 0.07 0.05 0.04 0.05 0.07 0.10 0.12 0.13 0.12 0.12 0.13 0.14 0.13 0.11 0.11 0.10 0.09 0.08 0.08 0.08 0.09 0.09 0.09 0.08 0.08 0.08 0.09
0.09 0.10 0.09 0.07 0.08 0.10 0.11 0.11 0.13 0.16 0.16 0.15 0.12 0.07 0.04 0.04 0.04 0.04 0.03 0.03 0.05 0.07 0.11 0.13 0.13 0.12 0.12 0.13 0.13 0.12 0.11 0.11 0.11 0.11 0.11 0.10 0.11 0.11 0.11 0.11 0.09 0.09 0.10
0.09 0.11 0.11 0.10 0.12 0.13 0.11 0.09 0.11 0.13 0.13 0.11 0.07 0.04 0.04 0.03 0.02 0.02 0.03 0.04 0.05 0.06 0.08 0.10 0.13 0.13 0.15 0.14 0.12 0.12 0.12 0.12 0.12 0.13 0.13 0.12 0.12 0.12 0.12 0.11 0.11 0.09 0.11
0.15 0.13 0.09 0.07 0.06 0.06 0.06 0.10 0.11 0.10 0.08 0.07 0.06 0.04 0.03 0.03 0.02 0.02 0.03 0.05 0.06 0.07 0.09 0.10 0.11 0.13 0.12 0.13 0.12 0.12 0.13 0.13 0.12 0.13 0.15 0.14 0.12 0.12 0.13 0.12 0.12 0.11 0.11
0.12 0.07 0.05 0.04 0.04 0.04 0.05 0.06 0.07 0.07 0.07 0.08 0.07 0.04 0.03 0.02 0.02 0.02 0.03 0.03 0.03 0.05 0.08 0.09 0.09 0.10 0.11 0.11 0.12 0.12 0.12 0.12 0.11 0.12 0.13 0.13 0.12 0.12 0.13 0.15 0.16 0.16 0.15
0.07 0.06 0.03 0.03 0.03 0.04 0.03 0.04 0.05 0.05 0.04 0.06 0.07 0.05 0.03 0.02 0.02 0.02 0.03 0.04 0.04 0.05 0.04 0.05 0.05 0.06 0.10 0.11 0.10 0.10 0.10 0.11 0.12 0.15 0.15 0.17 0.15 0.12 0.11 0.11 0.13 0.14 0.15
0.08 0.05 0.03 0.03 0.03 0.02 0.03 0.02 0.03 0.03 0.03 0.02 0.03 0.03 0.04 0.04 0.04 0.03 0.03 0.03 0.04 0.05 0.05 0.05 0.07 0.08 0.08 0.08 0.09 0.08 0.09 0.09 0.10 0.13 0.14 0.16 0.16 0.15 0.13 0.11 0.11 0.11 0.11
0.08 0.06 0.04 0.03 0.02 0.02 0.01 0.01 0.01 0.01 0.02 0.02 0.01 0.02 0.03 0.04 0.05 0.04 0.02 0.01 0.03 0.05 0.05 0.05 0.06 0.07 0.07 0.06 0.06 0.06 0.07 0.07 0.09 0.12 0.13 0.15 0.14 0.16 0.15 0.12 0.11 0.12 0.12
0.08 0.06 0.05 0.04 0.02 0.01 0.01 0.01 0.01 0.01 0.01 0.01 0.01 0.02 0.02 0.03 0.03 0.04 0.04 0.02 0.02 0.04 0.04 0.05 0.05 0.06 0.07 0.07 0.07 0.09 0.09 0.10 0.12 0.16 0.16 0.15 0.13 0.13 0.12 0.10 0.10 0.12 0.13
0.06 0.05 0.04 0.04 0.03 0.02 0.01 0.01 0.01 0.01 0.01 0.01 0.01 0.02 0.02 0.02 0.03 0.04 0.04 0.02 0.02 0.04 0.05 0.05 0.06 0.05 0.05 0.05 0.06 0.09 0.10 0.11 0.12 0.13 0.11 0.10 0.09 0.08 0.07 0.06 0.06 0.08 0.10
0.05 0.04 0.03 0.03 0.03 0.02 0.02 0.01 0.01 0.01 0.01 0.01 0.01 0.01 0.01 0.01 0.02 0.03 0.03 0.03 0.02 0.03 0.06 0.06 0.07 0.04 0.03 0.04 0.04 0.06 0.06 0.06 0.05 0.06 0.06 0.06 0.06 0.06 0.05 0.05 0.05 0.06 0.08
0.05 0.04 0.04 0.04 0.03 0.02 0.02 0.01 0.01 0.01 0.00 0.00 0.01 0.01 0.01 0.01 0.01 0.02 0.02 0.03 0.04 0.04 0.06 0.06 0.06 0.04 0.04 0.04 0.05 0.05 0.05 0.05 0.04 0.04 0.03 0.03 0.03 0.04 0.04 0.05 0.05 0.05 0.06
0.05 0.03 0.04 0.02 0.01 0.01 0.01 0.01 0.01 0.01 0.01 0.01 0.01 0.01 0.01 0.01 0.01 0.02 0.02 0.02 0.03 0.04 0.04 0.06 0.06 0.05 0.04 0.03 0.04 0.06 0.07 0.06 0.03 0.03 0.02 0.02 0.02 0.02 0.03 0.03 0.04 0.05 0.06
0.04 0.03 0.03 0.02 0.01 0.01 0.01 0.01 0.01 0.01 0.01 0.01 0.01 0.01 0.01 0.01 0.01 0.02 0.02 0.02 0.02 0.02 0.02 0.03 0.06 0.08 0.06 0.03 0.03 0.05 0.08 0.05 0.02 0.03 0.04 0.04 0.03 0.02 0.02 0.02 0.03 0.04 0.06
0.03 0.03 0.02 0.01 0.01 0.01 0.00 0.00 0.00 0.00 0.01 0.01 0.01 0.01 0.01 0.01 0.01 0.01 0.02 0.02 0.02 0.02 0.02 0.02 0.03 0.08 0.09 0.06 0.05 0.05 0.06 0.04 0.03 0.03 0.03 0.03 0.05 0.05 0.04 0.04 0.04 0.05 0.06
0.03 0.02 0.01 0.01 0.01 0.01 0.00 0.00 0.01 0.01 0.02 0.02 0.02 0.02 0.01 0.01 0.01 0.01 0.01 0.01 0.01 0.01 0.01 0.01 0.02 0.03 0.06 0.06 0.06 0.06 0.05 0.05 0.03 0.03 0.03 0.03 0.04 0.05 0.05 0.04 0.04 0.05 0.05
0.03 0.02 0.02 0.01 0.01 0.01 0.01 0.01 0.01 0.01 0.01 0.01 0.01 0.01 0.01 0.01 0.01 0.01 0.01 0.01 0.01 0.01 0.01 0.02 0.03 0.04 0.05 0.06 0.06 0.04 0.04 0.04 0.02 0.02 0.03 0.03 0.04 0.04 0.05 0.04 0.04 0.04 0.05
0.02 0.02 0.02 0.01 0.02 0.02 0.01 0.01 0.01 0.01 0.01 0.00 0.01 0.01 0.01 0.01 0.01 0.01 0.01 0.01 0.01 0.01 0.01 0.02 0.04 0.04 0.05 0.07 0.07 0.05 0.03 0.03 0.03 0.02 0.03 0.02 0.03 0.04 0.04 0.04 0.04 0.04 0.05
0.03 0.02 0.02 0.01 0.01 0.01 0.01 0.01 0.01 0.01 0.01 0.01 0.01 0.01 0.02 0.02 0.02 0.02 0.02 0.02 0.02 0.02 0.02 0.02 0.04 0.05 0.06 0.08 0.08 0.06 0.04 0.03 0.03 0.02 0.02 0.02 0.03 0.03 0.03 0.03 0.03 0.04 0.05
0.03 0.02 0.03 0.02 0.01 0.01 0.00 0.00 0.01 0.02 0.05 0.03 0.01 0.02 0.01 0.02 0.02 0.02 0.01 0.01 0.01 0.01 0.01 0.02 0.03 0.06 0.07 0.07 0.07 0.06 0.06 0.04 0.03 0.02 0.03 0.02 0.02 0.02 0.03 0.03 0.03 0.03 0.03
0.04 0.03 0.02 0.02 0.01 0.01 0.00 0.00 0.01 0.02 0.03 0.01 0.01 0.01 0.01 0.01 0.01 0.01 0.01 0.01 0.01 0.01 0.02 0.01 0.01 0.03 0.04 0.06 0.06 0.05 0.05 0.04 0.03 0.03 0.03 0.02 0.02 0.02 0.02 0.02 0.02 0.02 0.02
0.04 0.04 0.02 0.01 0.01 0.00 0.01 0.01 0.01 0.01 0.01 0.02 0.04 0.03 0.02 0.01 0.01 0.01 0.01 0.01 0.01 0.01 0.02 0.02 0.01 0.01 0.02 0.03 0.05 0.05 0.05 0.04 0.04 0.03 0.03 0.02 0.02 0.01 0.01 0.02 0.02 0.03 0.03
0.04 0.04 0.02 0.01 0.00 0.00 0.01 0.01 0.01 0.01 0.01 0.02 0.04 0.04 0.02 0.02 0.02 0.02 0.02 0.03 0.03 0.02 0.03 0.02 0.02 0.02 0.02 0.03 0.03 0.04 0.04 0.04 0.04 0.04 0.04 0.03 0.03 0.02 0.02 0.02 0.03 0.03 0.03
MSLP
1009.90 1009.94 1009.91 1009.84 1009.79 1009.81 1009.92 1010.11 1010.37 1010.64 1010.88 1011.04 1011.10 1011.06 1010.92 1010.74 1010.54 1010.36 1010.24 1010.18 1010.19 1010.25 1010.35 1010.47 1010.60 1010.73 1010.86 1011.02 1011.20 1011.41 1011.68 1012.00 1012.37 1012.78 1013.23 1013.70 1014.16 1014.61 1015.02 1015.39 1015.73 1016.02 1016.29
1009.62 1009.67 1009.66 1009.62 1009.59 1009.62 1009.73 1009.92 1010.15 1010.40 1010.62 1010.77 1010.83 1010.78 1010.65 1010.45 1010.24 1010.03 1009.87 1009.77 1009.74 1009.77 1009.85 1009.96 1010.09 1010.22 1010.36 1010.51 1010.67 1010.87 1011.10 1011.39 1011.74 1012.14 1012.59 1013.07 1013.57 1014.05 1014.51 1014.92 1015.29 1015.62 1015.92
1009.29 1009.38 1009.40 1009.41 1009.42 1009.48 1009.60 1009.77 1009.98 1010.19 1010.38 1010.49 1010.52 1010.45 1010.31 1010.10 1009.85 1009.62 1009.42 1009.27 1009.20 1009.19 1009.25 1009.35 1009.48 1009.63 1009.79 1009.95 1010.11 1010.30 1010.52 1010.78 1011.11 1011.49 1011.94 1012.43 1012.94 1013.45 1013.94 1014.40 1014.81 1015.17 1015.50
1008.93 1009.05 1009.13 1009.19 1009.27 1009.37 1009.50 1009.65 1009.82 1009.98 1010.11 1010.17 1010.16 1010.06 1009.88 1009.65 1009.38 1009.11 1008.87 1008.68 1008.56 1008.52 1008.55 1008.64 1008.78 1008.95 1009.14 1009.33 1009.51 1009.71 1009.93 1010.18 1010.49 1010.86 1011.29 1011.77 1012.29 1012.82 1013.33 1013.82 1014.26 1014.66 1015.02
1008.55 1008.71 1008.85 1008.99 1009.12 1009.26 1009.41 1009.55 1009.67 1009.77 1009.82 1009.82 1009.75 1009.61 1009.41 1009.15 1008.86 1008.56 1008.28 1008.05 1007.88 1007.80 1007.80 1007.88 1008.03 1008.22 1008.44 1008.66 1008.89 1009.11 1009.35 1009.60 1009.90 1010.25 1010.67 1011.13 1011.64 1012.17 1012.69 1013.19 1013.65 1014.07 1014.46
1008.22 1008.41 1008.61 1008.81 1009.01 1009.19 1009.34 1009.45 1009.53 1009.56 1009.54 1009.47 1009.34 1009.17 1008.94 1008.66 1008.36 1008.03 1007.72 1007.45 1007.24 1007.12 1007.09 1007.15 1007.29 1007.50 1007.75 1008.01 1008.27 1008.53 1008.78 1009.05 1009.35 1009.69 1010.09 1010.53 1011.02 1011.53 1012.04 1012.54 1013.00 1013.42 1013.81
1008.01 1008.21 1008.45 1008.71 1008.95 1009.16 1009.31 1009.40 1009.42 1009.39 1009.30 1009.16 1008.99 1008.78 1008.54 1008.26 1007.95 1007.62 1007.29 1006.99 1006.74 1006.57 1006.50 1006.53 1006.66 1006.87 1007.13 1007.41 1007.71 1007.99 1008.28 1008.56 1008.86 1009.20 1009.57 1010.00 1010.46 1010.94 1011.43 1011.90 1012.33 1012.74 1013.12
1007.96 1008.17 1008.43 1008.71 1008.98 1009.19 1009.33 1009.39 1009.36 1009.27 1009.12 1008.94 1008.74 1008.52 1008.28 1008.02 1007.72 1007.40 1007.07 1006.74 1006.46 1006.25 1006.13 1006.12 1006.21 1006.39 1006.64 1006.93 1007.24 1007.54 1007.84 1008.13 1008.44 1008.77 1009.14 1009.54 1009.98 1010.43 1010.88 1011.31 1011.71 1012.08 1012.42
1008.11 1008.30 1008.56 1008.83 1009.09 1009.29 1009.40 1009.42 1009.35 1009.21 1009.02 1008.82 1008.61 1008.40 1008.19 1007.95 1007.69 1007.39 1007.07 1006.74 1006.44 1006.18 1006.02 1005.95 1005.99 1006.13 1006.34 1006.60 1006.89 1007.19 1007.49 1007.79 1008.10 1008.43 1008.79 1009.18 1009.60 1010.02 1010.43 1010.82 1011.17 1011.49 1011.78
1008.43 1008.57 1008.79 1009.04 1009.26 1009.42 1009.49 1009.47 1009.36 1009.19 1008.99 1008.78 1008.59 1008.41 1008.23 1008.04 1007.83 1007.57 1007.28 1006.96 1006.64 1006.36 1006.15 1006.03 1006.00 1006.07 1006.23 1006.44 1006.69 1006.95 1007.23 1007.52 1007.83 1008.16 1008.52 1008.91 1009.31 1009.71 1010.09 1010.44 1010.75 1011.01 1011.25
1008.82 1008.92 1009.08 1009.26 1009.42 1009.53 1009.55 1009.48 1009.35 1009.16 1008.96 1008.77 1008.61 1008.47 1008.35 1008.22 1008.06 1007.85 1007.60 1007.31 1007.00 1006.71 1006.46 1006.29 1006.20 1006.20 1006.28 1006.41 1006.60 1006.81 1007.05 1007.32 1007.61 1007.94 1008.30 1008.69 1009.09 1009.49 1009.85 1010.17 1010.44 1010.66 1010.84
1009.21 1009.24 1009.32 1009.42 1009.51 1009.55 1009.52 1009.43 1009.27 1009.09 1008.90 1008.75 1008.62 1008.54 1008.47 1008.40 1008.30 1008.15 1007.94 1007.69 1007.41 1007.13 1006.87 1006.66 1006.52 1006.44 1006.44 1006.49 1006.59 1006.74 1006.92 1007.15 1007.42 1007.74 1008.11 1008.50 1008.91 1009.31 1009.67 1009.98 1010.22 1010.41 1010.55
1009.50 1009.45 1009.46 1009.48 1009.49 1009.47 1009.40 1009.28 1009.12 1008.95 1008.80 1008.68 1008.60 1008.56 1008.54 1008.51 1008.47 1008.37 1008.22 1008.02 1007.77 1007.52 1007.27 1007.05 1006.87 1006.74 1006.66 1006.63 1006.64 1006.71 1006.82 1006.99 1007.23 1007.54 1007.90 1008.29 1008.71 1009.12 1009.48 1009.79 1010.03 1010.20 1010.31
1009.64 1009.53 1009.46 1009.41 1009.36 1009.28 1009.18 1009.06 1008.91 1008.77 1008.65 1008.57 1008.53 1008.52 1008.53 1008.54 1008.53 1008.47 1008.37 1008.22 1008.03 1007.82 1007.59 1007.38 1007.19 1007.02 1006.88 1006.77 1006.71 1006.69 1006.73 1006.83 1007.02 1007.30 1007.64 1008.03 1008.45 1008.86 1009.23 1009.54 1009.77 1009.94 1010.05
1009.63 1009.48 1009.35 1009.24 1009.15 1009.05 1008.94 1008.82 1008.70 1008.60 1008.51 1008.46 1008.44 1008.45 1008.47 1008.48 1008.49 1008.46 1008.39 1008.28 1008.15 1007.99 1007.81 1007.62 1007.44 1007.25 1007.07 1006.90 1006.76 1006.66 1006.62 1006.66 1006.79 1007.01 1007.32 1007.68 1008.08 1008.48 1008.84 1009.15 1009.39 1009.57 1009.68
1009.53 1009.35 1009.19 1009.05 1008.93 1008.83 1008.73 1008.64 1008.56 1008.49 1008.44 1008.40 1008.39 1008.39 1008.39 1008.39 1008.38 1008.35 1008.30 1008.23 1008.14 1008.03 1007.90 1007.76 1007.59 1007.40 1007.20 1006.99 1006.79 1006.62 1006.50 1006.47 1006.53 1006.68 1006.93 1007.24 1007.60 1007.96 1008.30 1008.59 1008.83 1009.01 1009.14
1009.40 1009.21 1009.05 1008.91 1008.80 1008.71 1008.64 1008.58 1008.54 1008.50 1008.47 1008.44 1008.41 1008.38 1008.34 1008.30 1008.26 1008.21 1008.15 1008.10 1008.04 1007.97 1007.89 1007.78 1007.65 1007.47 1007.26 1007.02 1006.78 1006.55 1006.37 1006.26 1006.24 1006.32 1006.48 1006.72 1007.01 1007.31 1007.60 1007.85 1008.07 1008.25 1008.40
1009.32 1009.15 1008.99 1008.87 1008.78 1008.72 1008.68 1008.66 1008.64 1008.62 1008.60 1008.56 1008.50 1008.43 1008.34 1008.24 1008.15 1008.05 1007.98 1007.91 1007.87 1007.82 1007.77 1007.70 1007.59 1007.44 1007.23 1006.99 1006.72 1006.45 1006.22 1006.04 1005.94 1005.94 1006.01 1006.15 1006.35 1006.56 1006.77 1006.97 1007.15 1007.31 1007.46
1009.32 1009.17 1009.04 1008.95 1008.88 1008.85 1008.83 1008.83 1008.83 1008.82 1008.78 1008.72 1008.62 1008.50 1008.35 1008.19 1008.03 1007.89 1007.77 1007.69 1007.63 1007.59 1007.56 1007.51 1007.42 1007.29 1007.10 1006.86 1006.58 1006.30 1006.03 1005.80 1005.63 1005.55 1005.53 1005.57 1005.66 1005.77 1005.89 1006.01 1006.13 1006.25 1006.40
1009.39 1009.27 1009.17 1009.10 1009.05 1009.03 1009.02 1009.02 1009.02 1008.99 1008.94 1008.84 1008.71 1008.53 1008.32 1008.10 1007.88 1007.68 1007.52 1007.39 1007.31 1007.26 1007.23 1007.18 1007.11 1007.00 1006.82 1006.60 1006.33 1006.05 1005.77 1005.51 1005.30 1005.14 1005.04 1004.99 1004.98 1004.98 1005.01 1005.04 1005.08 1005.16 1005.27
1009.49 1009.41 1009.33 1009.26 1009.21 1009.17 1009.15 1009.13 1009.11 1009.06 1008.97 1008.84 1008.67 1008.45 1008.19 1007.92 1007.65 1007.40 1007.18 1007.01 1006.89 1006.81 1006.76 1006.71 1006.64 1006.54 1006.39 1006.19 1005.95 1005.68 1005.40 1005.14 1004.91 1004.71 1004.55 1004.43 1004.32 1004.24 1004.17 1004.11 1004.09 1004.10 1004.16
1009.59 1009.51 1009.43 1009.35 1009.28 1009.21 1009.15 1009.09 1009.02 1008.94 1008.82 1008.66 1008.46 1008.21 1007.92 1007.61 1007.30 1007.00 1006.74 1006.52 1006.36 1006.24 1006.15 1006.08 1006.00 1005.90 1005.77 1005.60 1005.39 1005.15 1004.90 1004.66 1004.43 1004.22 1004.02 1003.85 1003.69 1003.54 1003.40 1003.27 1003.18 1003.13 1003.13
1009.62 1009.53 1009.43 1009.32 1009.20 1009.08 1008.97 1008.85 1008.74 1008.61 1008.47 1008.28 1008.06 1007.80 1007.50 1007.17 1006.83 1006.50 1006.19 1005.93 1005.71 1005.54 1005.41 1005.30 1005.20 1005.10 1004.98 1004.83 1004.65 1004.46 1004.25 1004.03 1003.82 1003.62 1003.42 1003.23 1003.05 1002.86 1002.68 1002.51 1002.36 1002.25 1002.20
1009.56 1009.45 1009.31 1009.15 1008.98 1008.80 1008.62 1008.45 1008.29 1008.13 1007.96 1007.77 1007.55 1007.28 1006.98 1006.64 1006.29 1005.93 1005.58 1005.26 1004.98 1004.75 1004.57 1004.42 1004.29 1004.17 1004.04 1003.91 1003.76 1003.60 1003.42 1003.24 1003.06 1002.88 1002.70 1002.52 1002.34 1002.15 1001.96 1001.78 1001.61 1001.46 1001.36
1009.42 1009.27 1009.09 1008.87 1008.64 1008.40 1008.17 1007.96 1007.76 1007.58 1007.40 1007.20 1006.99 1006.73 1006.44 1006.10 1005.73 1005.34 1004.95 1004.58 1004.24 1003.95 1003.70 1003.49 1003.32 1003.17 1003.03 1002.89 1002.75 1002.61 1002.45 1002.30 1002.14 1001.99 1001.84 1001.68 1001.53 1001.37 1001.20 1001.03 1000.86 1000.70 1000.56
1009.22 1009.04 1008.80 1008.54 1008.26 1007.97 1007.70 1007.45 1007.24 1007.05 1006.87 1006.69 1006.48 1006.24 1005.95 1005.61 1005.22 1004.80 1004.36 1003.94 1003.53 1003.17 1002.85 1002.58 1002.36 1002.17 1002.00 1001.84 1001.69 1001.54 1001.39 1001.24 1001.10 1000.96 1000.83 1000.70 1000.58 1000.46 1000.33 1000.20 1000.05 999.90 999.75
Thickness
5727 5724 5722 5721 5719 5717 5716 5714 5712 5711 5709 5707 5705 5704 5703 5702 5701 5701 5701 5701 5700 5700 5700 5699 5698 5698 5698 5698 5697 5697 5697 5697 5698 5698 5698 5698 5698 5698 5698 5698 5698 5697 5697
5724 5721 5718 5716 5715 5713 5712 5710 5708 5706 5704 5702 5701 5699 5698 5697 5696 5696 5696 5696 5696 5696 5695 5694 5693 5693 5693 5693 5693 5693 5693 5694 5694 5695 5695 5695 5695 5695 5695 5695 5695 5695 5694
5719 5716 5713 5711 5710 5709 5706 5704 5702 5700 5698 5697 5695 5695 5694 5693 5691 5690 5691 5691 5691 5691 5690 5689 5688 5688 5689 5688 5688 5689 5689 5690 5691 5691 5692 5692 5692 5693 5692 5693 5693 5693 5692
5714 5711 5708 5706 5705 5703 5700 5697 5694 5692 5691 5690 5689 5689 5688 5688 5687 5686 5685 5685 5685 5685 5685 5684 5683 5683 5684 5684 5684 5684 5685 5686 5687 5687 5688 5689 5689 5689 5689 5689 5689 5690 5689
5709 5706 5703 5701 5699 5697 5695 5692 5689 5686 5684 5684 5684 5684 5684 5683 5681 5680 5680 5680 5679 5679 5678 5678 5678 5678 5678 5679 5679 5680 5681 5681 5682 5683 5684 5685 5685 5686 5686 5686 5686 5686 5686
5703 5700 5698 5695 5693 5691 5688 5686 5684 5682 5680 5678 5679 5679 5677 5677 5675 5674 5674 5673 5673 5673 5672 5672 5671 5671 5672 5673 5674 5675 5676 5677 5678 5678 5680 5680 5681 5682 5682 5682 5682 5682 5682
5697 5695 5692 5689 5687 5684 5682 5680 5678 5675 5673 5672 5669 5668 5670 5671 5669 5669 5668 5666 5666 5665 5665 5665 5664 5664 5665 5666 5668 5670 5671 5672 5672 5674 5675 5676 5676 5677 5677 5678 5679 5679 5678
5691 5689 5686 5684 5681 5678 5676 5674 5671 5667 5666 5665 5661 5657 5656 5658 5660 5663 5660 5659 5658 5658 5657 5658 5657 5658 5658 5660 5662 5664 5665 5666 5667 5669 5670 5671 5672 5673 5673 5674 5674 5674 5675
5685 5682 5680 5678 5675 5673 5670 5668 5665 5662 5658 5658 5656 5651 5646 5644 5647 5651 5651 5651 5650 5650 5650 5651 5652 5652 5653 5654 5656 5658 5660 5661 5662 5664 5665 5666 5667 5668 5668 5668 5669 5670 5670
5679 5677 5674 5672 5670 5667 5664 5662 5660 5657 5653 5650 5649 5647 5644 5641 5638 5638 5641 5642 5642 5642 5643 5644 5646 5647 5648 5649 5650 5652 5654 5655 5657 5658 5660 5661 5661 5662 5663 5663 5664 5665 5666
5673 5672 5669 5666 5664 5661 5659 5657 5655 5652 5649 5645 5642 5640 5638 5636 5634 5630 5630 5632 5634 5635 5636 5637 5639 5640 5642 5643 5645 5647 5648 5649 5651 5653 5654 5655 5655 5656 5657 5659 5659 5660 5661
5666 5665 5663 5660 5658 5655 5653 5652 5649 5647 5644 5641 5638 5635 5632 5629 5627 5624 5622 5623 5624 5627 5629 5631 5633 5634 5636 5638 5640 5642 5643 5644 5646 5647 5648 5649 5649 5650 5652 5653 5654 5655 5656
5659 5659 5658 5654 5652 5650 5648 5646 5644 5642 5639 5636 5633 5631 5628 5626 5624 5620 5617 5616 5616 5619 5622 5624 5626 5628 5631 5632 5634 5636 5637 5639 5640 5641 5641 5642 5643 5644 5645 5647 5648 5649 5650
5655 5654 5652 5650 5648 5646 5644 5642 5639 5637 5634 5632 5630 5627 5624 5622 5620 5617 5613 5610 5610 5610 5612 5615 5619 5622 5624 5626 5627 5629 5631 5632 5634 5635 5635 5636 5637 5638 5639 5640 5641 5642 5644
5651 5650 5648 5646 5643 5641 5639 5636 5633 5631 5629 5627 5624 5622 5619 5618 5616 5613 5609 5606 5603 5603 5605 5609 5611 5616 5618 5620 5621 5622 5624 5626 5627 5628 5629 5630 5631 5632 5633 5634 5635 5636 5637
5647 5646 5643 5641 5638 5636 5634 5631 5628 5626 5623 5621 5619 5616 5614 5612 5610 5608 5605 5603 5600 5598 5598 5602 5605 5609 5612 5614 5615 5615 5617 5619 5620 5621 5622 5624 5625 5626 5627 5628 5629 5630 5632
5644 5641 5640 5637 5634 5632 5629 5626 5624 5622 5619 5617 5615 5612 5609 5607 5605 5603 5601 5599 5597 5594 5594 5597 5600 5604 5605 5606 5608 5609 5610 5611 5613 5614 5616 5617 5618 5620 5621 5622 5623 5624 5626
5641 5638 5636 5633 5631 5628 5625 5622 5619 5618 5615 5612 5610 5607 5605 5604 5601 5598 5596 5595 5593 5591 5590 5591 5595 5597 5599 5601 5601 5602 5603 5605 5606 5608 5609 5611 5612 5614 5615 5616 5617 5618 5619
5637 5635 5633 5629 5627 5624 5621 5619 5616 5613 5611 5608 5605 5602 5600 5598 5596 5594 5592 5590 5589 5589 5587 5586 5589 5591 5593 5595 5595 5596 5597 5597 5599 5601 5602 5604 5606 5607 5608 5610 5611 5612 5613
5634 5632 5629 5627 5624 5621 5618 5615 5612 5609 5606 5604 5601 5599 5596 5594 5592 5590 5589 5587 5585 5584 5582 5582 5583 5585 5586 5588 5588 5588 5589 5590 5592 5594 5596 5598 5599 5601 5602 5603 5604 5606 5607
5631 5629 5626 5624 5621 5618 5615 5611 5608 5606 5602 5599 5598 5596 5594 5592 5590 5587 5585 5582 5581 5579 5578 5578 5578 5579 5580 5581 5582 5582 5582 5583 5585 5587 5588 5590 5592 5593 5595 5596 5597 5600 5601
5626 5625 5622 5620 5617 5615 5612 5609 5605 5601 5598 5596 5593 5592 5590 5588 5586 5584 5581 5580 5577 5575 5574 5573 5573 5573 5575 5576 5577 5577 5576 5575 5576 5580 5580 5583 5585 5587 5589 5590 5592 5594 5596
5622 5621 5619 5616 5613 5611 5609 5605 5602 5598 5594 5592 5590 5587 5586 5585 5581 5578 5576 5575 5574 5572 5571 5569 5568 5569 5570 5571 5571 5571 5570 5569 5570 5573 5572 5575 5579 5580 5583 5585 5587 5588 5589
5619 5618 5616 5613 5611 5609 5606 5603 5600 5595 5592 5589 5586 5584 5580 5578 5576 5573 5570 5569 5568 5568 5567 5566 5565 5565 5566 5566 5565 5564 5564 5564 5566 5567 5568 5568 5572 5574 5578 5580 5581 5582 5583
5617 5615 5614 5611 5608 5606 5604 5601 5597 5592 5589 5586 5583 5581 5577 5573 5571 5568 5565 5563 5563 5563 5564 5563 5562 5561 5561 5561 5560 5558 5557 5557 5559 5561 5562 5562 5565 5567 5570 5572 5575 5575 5576
5616 5614 5612 5609 5607 5604 5603 5599 5595 5590 5585 5582 5579 5576 5573 5569 5566 5563 5560 5557 5556 5557 5557 5557 5556 5556 5555 5555 5555 5552 5551 5550 5551 5553 5556 5556 5558 5558 5560 5564 5566 5567 5569